STARLINK-33739, 63572

Orbit data source: Space-Track

STARLINK-33739, 63572 is a payload satellite owned by SpaceX/Seattle (US) in LEO that was launched on Mon, 14 Apr 2025 UTC via an FALCON 9 launch vehicle from the Air Force Eastern Test Range (AFETR). Payload-class satellites include a variety of spacecraft equipped with specific instruments for various scientific and technological missions. These include communications satellites like Starlink; space stations such as the ISS; scientific satellites like the Hubble; Earth observation satellites from companies like Planet Labs, Umbra, and HawkEye 360; GPS; miniature CubeSats for education and research; and military/defense satellites.

Loading next visibility...
Identifier
63572, 2025-076D
Orbit
LEO
Last TLE update
9 hours ago
Origin
Manufacturer
SpaceX/Seattle
Mission
Operational Commercial Communications
Bus & Motor
STARLINK V2MO, Unknown motor
Mass
575 kg wet, ~530 kg dry
Launch date (UTC)
2025-04-14 (3 months ago)
Launch vehicle
FALCON 9
Launch site
Air Force Eastern Test Range (AFETR)
Object type
Payload
Rocket body
Debris
Shape & HBR
Box + 1 Pan, 29 m
Radar Cross Section
41.120 m², Large (>1 m²)

Expand to show TLE details & history

TLE from 9 hours ago
0 STARLINK-33739
1 63572U 25076D   25182.06382248  .00015239  00000-0  56180-3 0  9997
2 63572  43.0040 303.0845 0001835 276.1215  83.9427 15.27600865 13265
Epoch: 2025-07-01T01:31Z
TLE epoch observation values (Epoch: 2025-07-01T01:31:54.262Z)
Latitude
-0.00005°
Longitude
0.74371°
Altitude
482.63 km
Speed
7.626 km/s
True Right ascension
20h 12m 20s
True Declination
0° 00' 00"
Sunlit
Object was in full shadow at epoch
Visualization orbit readout
Latitude
19.23334°
Longitude
156.9014°
Altitude
483.001 km
Speed
7.627 km/s
Apparent Right ascension
07h 55m 18s
Apparent Declination
-9° 51' 29"
Sunlit
Object is in daylight
Visualization observer readout
Local Sidereal Time
21:40:35
Azimuth
45.102° ENE
Elevation
-51.922°
Doppler factor
1
Orbital elements
Apogee altitude
486.191 km
Perigee altitude
483.672 km
Semi-major axis
6,863.068 km
Eccentricity
0.00018
Inclination
43.004°
RAAN
303.0845°
Arg. of periapsis
276.1215°
True anomaly
Unknown
Mean anomaly
83.9427°
Eccentric anomaly
Unknown
Mean motion
3.81738 °/min
Orbital period
94.31 mins
BSTAR
0.0005618
Loading maneuver chart data...
Loading SW <> Apogee altitude chart data...
Loading historical data...
Loading historical data...
Loading historical data...
Loading historical data...
Loading historical data...
Loading historical data...
Loading historical data...

STARLINK-33739 Visibility forecast

Observer location: undefined°, undefined°

Span
Click to sort rows by Start time (UTC) header in descending order
Start Az.
Max El. time (UTC)
Max El. Az.
Max El.
End time (UTC)
End Az.
6 mins2025-07-01 11:08:12.747Z204.834° SW2025-07-01 11:11:12.747Z146.265° SSE24.798°2025-07-01 11:14:12.747Z89.522° E
6 mins2025-07-01 12:47:12.747Z257.304° W2025-07-01 12:50:12.747Z41.744° NE43.436°2025-07-01 12:53:12.747Z70.769° E
5 mins2025-07-01 14:27:12.747Z296.013° NW2025-07-01 14:29:12.747Z11.172° NNE37.892°2025-07-01 14:32:12.747Z76.851° E
5 mins2025-07-01 16:06:12.747Z287.438° WNW2025-07-01 16:08:12.747Z175.692° S44.968°2025-07-01 16:11:12.747Z110.531° ESE
4 mins2025-07-01 17:45:12.747Z249.233° W2025-07-01 17:47:12.747Z205.205° SW19.961°2025-07-01 17:49:12.747Z169.071° S
|